| time (UTC) | temp F | wind direction | speed MPH | gust MPH | rain 1hr in | rain 24hr in | rain mn in | humidity % | barometer mb |
| 20260507043518 | 81 | 263 | 7.0 | 16.0 | 0.14 | 0.76 | 0.00 | 74 | 1012.4 |
| 20260507043516 | 81 | 298 | 7.0 | 16.0 | 0.14 | 0.76 | 0.00 | 74 | 1012.4 |
| 20260507043016 | 81 | 294 | 5.0 | 18.0 | 0.14 | 0.76 | 0.00 | 74 | 1012.4 |
| 20260507043008 | 81 | 208 | 6.0 | 18.0 | 0.14 | 0.77 | 0.00 | 74 | 1012.4 |
| 20260507042517 | 82 | 233 | 9.0 | 16.0 | 0.14 | 0.79 | 0.00 | 73 | 1012.4 |
| 20260507042457 | 82 | 291 | 10.0 | 16.0 | 0.14 | 0.79 | 0.00 | 72 | 1012.3 |
| 20260507042016 | 83 | 252 | 6.0 | 11.0 | 0.12 | 0.77 | 0.00 | 72 | 1012.5 |
| 20260507041948 | 83 | 233 | 6.0 | 11.0 | 0.12 | 0.77 | 0.00 | 72 | 1012.5 |
| 20260507041517 | 83 | 265 | 5.0 | 17.0 | 0.14 | 0.77 | 0.00 | 73 | 1012.4 |
| 20260507041438 | 83 | 311 | 3.0 | 17.0 | 0.14 | 0.77 | 0.00 | 73 | 1012.5 |
| 20260507041015 | 83 | 248 | 6.0 | 11.0 | 0.11 | 0.75 | 0.00 | 72 | 1012.5 |
| 20260507040927 | 84 | 232 | 3.0 | 9.0 | 0.11 | 0.75 | 0.00 | 73 | 1012.6 |
| 20260507040516 | 82 | 317 | 3.0 | 12.0 | 0.10 | 0.74 | 0.00 | 73 | 1012.6 |
| 20260507040418 | 82 | 260 | 6.0 | 12.0 | 0.11 | 0.74 | 0.00 | 73 | 1012.6 |
| 20260507040016 | 82 | 200 | 7.0 | 16.0 | 0.14 | 0.72 | 0.00 | 74 | 1012.8 |
| 20260507035907 | 82 | 236 | 9.0 | 16.0 | 0.14 | 0.72 | 0.00 | 73 | 1012.7 |
| 20260507035516 | 82 | 164 | 7.0 | 16.0 | 0.14 | 0.72 | 0.00 | 73 | 1012.8 |
| 20260507035358 | 82 | 262 | 7.0 | 16.0 | 0.12 | 0.70 | 0.00 | 72 | 1012.8 |
| 20260507035016 | 83 | 242 | 5.0 | 11.0 | 0.10 | 0.67 | 0.00 | 72 | 1012.8 |
| 20260507034847 | 84 | 231 | 6.0 | 11.0 | 0.10 | 0.67 | 0.00 | 71 | 1012.9 |
| 20260507034516 | 85 | 227 | 5.0 | 9.0 | 0.14 | 0.67 | 0.00 | 71 | 1012.9 |
| 20260507034337 | 85 | 285 | 3.0 | 15.0 | 0.12 | 0.66 | 0.00 | 71 | 1012.9 |
| 20260507034016 | 85 | 56 | 4.0 | 15.0 | 0.11 | 0.64 | 0.00 | 71 | 1013.0 |
| 20260507033828 | 85 | 355 | 6.0 | 11.0 | 0.11 | 0.64 | 0.00 | 72 | 1013.0 |
| 20260507033516 | 85 | 252 | 6.0 | 10.0 | 0.11 | 0.64 | 0.00 | 70 | 1013.1 |
| 20260507033317 | 85 | 224 | 6.0 | 8.0 | 0.11 | 0.64 | 0.00 | 71 | 1013.1 |
| 20260507033016 | 85 | 321 | 2.0 | 10.0 | 0.12 | 0.64 | 0.00 | 71 | 1013.1 |
| 20260507032807 | 85 | 172 | 3.0 | 10.0 | 0.12 | 0.64 | 0.00 | 71 | 1013.2 |
| 20260507032516 | 85 | 44 | 1.0 | 10.0 | 0.12 | 0.64 | 0.00 | 71 | 1013.2 |
| 20260507032257 | 85 | 246 | 4.0 | 15.0 | 0.12 | 0.64 | 0.00 | 72 | 1013.2 |
| 20260507032016 | 84 | 54 | 3.0 | 15.0 | 0.12 | 0.64 | 0.00 | 72 | 1013.2 |
| 20260507031747 | 83 | 36 | 3.0 | 11.0 | 0.14 | 0.63 | 0.00 | 72 | 1013.2 |
| 20260507031517 | 83 | 137 | 2.0 | 10.0 | 0.14 | 0.63 | 0.00 | 73 | 1013.2 |
| 20260507031237 | 82 | 290 | 5.0 | 14.0 | 0.14 | 0.63 | 0.00 | 73 | 1013.3 |
| 20260507031016 | 83 | 241 | 10.0 | 14.0 | 0.14 | 0.63 | 0.00 | 72 | 1013.3 |
| 20260507030727 | 83 | 214 | 10.0 | 14.0 | 0.14 | 0.63 | 0.00 | 71 | 1013.3 |
| 20260507030516 | 84 | 225 | 3.0 | 8.0 | 0.14 | 0.63 | 0.00 | 72 | 1013.3 |
| 20260507030218 | 84 | 244 | 5.0 | 10.0 | 0.09 | 0.59 | 0.00 | 72 | 1013.4 |
| 20260507030015 | 83 | 333 | 3.0 | 15.0 | 0.08 | 0.57 | 0.00 | 73 | 1013.4 |
| 20260507025707 | 83 | 64 | 6.0 | 11.0 | 0.09 | 0.57 | 0.00 | 73 | 1013.4 |
| 20260507025516 | 82 | 271 | 5.0 | 13.0 | 0.09 | 0.57 | 0.00 | 73 | 1013.4 |
| 20260507025157 | 83 | 250 | 4.0 | 13.0 | 0.09 | 0.56 | 0.00 | 72 | 1013.4 |
| 20260507025016 | 83 | 225 | 6.0 | 16.0 | 0.09 | 0.56 | 0.00 | 73 | 1013.5 |
| 20260507024647 | 82 | 291 | 7.0 | 17.0 | 0.07 | 0.53 | 0.00 | 73 | 1013.5 |
| 20260507024515 | 83 | 360 | 8.0 | 17.0 | 0.07 | 0.53 | 0.00 | 72 | 1013.4 |
| 20260507024137 | 83 | 327 | 4.0 | 13.0 | 0.10 | 0.53 | 0.00 | 72 | 1013.3 |
| 20260507024016 | 83 | 34 | 3.0 | 13.0 | 0.10 | 0.53 | 0.00 | 72 | 1013.4 |
| 20260507023627 | 84 | 15 | 4.0 | 11.0 | 0.10 | 0.53 | 0.00 | 73 | 1013.4 |
| 20260507023515 | 83 | 280 | 4.0 | 11.0 | 0.11 | 0.53 | 0.00 | 72 | 1013.4 |
| 20260507023117 | 83 | 335 | 6.0 | 11.0 | 0.12 | 0.51 | 0.00 | 72 | 1013.5 |
| 20260507023016 | 83 | 359 | 5.0 | 11.0 | 0.12 | 0.51 | 0.00 | 72 | 1013.5 |
| 20260507022606 | 83 | 298 | 6.0 | 11.0 | 0.14 | 0.51 | 0.00 | 72 | 1013.6 |
| 20260507022515 | 83 | 339 | 5.0 | 11.0 | 0.14 | 0.51 | 0.00 | 72 | 1013.6 |
| 20260507022016 | 82 | 284 | 5.0 | 10.0 | 0.12 | 0.50 | 0.00 | 74 | 1013.5 |
| 20260507021546 | 82 | 253 | 7.0 | 12.0 | 0.12 | 0.49 | 0.00 | 74 | 1013.6 |
| 20260507021515 | 82 | 295 | 5.0 | 12.0 | 0.12 | 0.49 | 0.00 | 74 | 1013.5 |
| 20260507021037 | 82 | 264 | 8.0 | 14.0 | 0.12 | 0.49 | 0.00 | 73 | 1013.6 |
| 20260507021016 | 82 | 296 | 7.0 | 14.0 | 0.12 | 0.49 | 0.00 | 73 | 1013.6 |
| 20260507020526 | 82 | 199 | 5.0 | 11.0 | 0.14 | 0.49 | 0.00 | 75 | 1013.6 |
| 20260507020516 | 82 | 303 | 5.0 | 11.0 | 0.14 | 0.49 | 0.00 | 75 | 1013.6 |
| 20260507020015 | 81 | 248 | 7.0 | 15.0 | 0.15 | 0.49 | 0.00 | 74 | 1013.5 |
| 20260507015516 | 82 | 279 | 3.0 | 9.0 | 0.14 | 0.48 | 0.00 | 76 | 1013.5 |
| 20260507015506 | 82 | 322 | 3.0 | 9.0 | 0.14 | 0.48 | 0.00 | 76 | 1013.5 |
| 20260507015015 | 81 | 177 | 1.0 | 10.0 | 0.12 | 0.47 | 0.00 | 76 | 1013.5 |
| 20260507014956 | 81 | 239 | 1.0 | 10.0 | 0.12 | 0.47 | 0.00 | 76 | 1013.5 |
| 20260507014515 | 81 | 42 | 3.0 | 9.0 | 0.11 | 0.46 | 0.00 | 76 | 1013.6 |
| 20260507014447 | 81 | 23 | 4.0 | 9.0 | 0.11 | 0.46 | 0.00 | 77 | 1013.6 |
| 20260507013936 | 80 | 239 | 3.0 | 7.0 | 0.10 | 0.42 | 0.00 | 79 | 1013.5 |
| 20260507013515 | 79 | 8 | 3.0 | 7.0 | 0.09 | 0.41 | 0.00 | 80 | 1013.6 |
| 20260507013426 | 79 | 5 | 2.0 | 7.0 | 0.09 | 0.41 | 0.00 | 80 | 1013.6 |
| 20260507013015 | 78 | 283 | 0.0 | 6.0 | 0.07 | 0.38 | 0.00 | 81 | 1013.6 |
| 20260507012916 | 78 | 336 | 2.0 | 6.0 | 0.07 | 0.38 | 0.00 | 81 | 1013.6 |
| 20260507012515 | 78 | 44 | 1.0 | 4.0 | 0.05 | 0.37 | 0.00 | 81 | 1013.6 |
| 20260507012406 | 78 | 36 | 2.0 | 8.0 | 0.05 | 0.37 | 0.00 | 81 | 1013.6 |
| 20260507012015 | 78 | 12 | 3.0 | 10.0 | 0.05 | 0.37 | 0.00 | 81 | 1013.5 |
| 20260507011857 | 78 | 119 | 5.0 | 11.0 | 0.05 | 0.37 | 0.00 | 81 | 1013.5 |
| 20260507011515 | 78 | 51 | 6.0 | 11.0 | 0.05 | 0.36 | 0.00 | 81 | 1013.5 |
| 20260507011346 | 78 | 104 | 3.0 | 8.0 | 0.05 | 0.36 | 0.00 | 82 | 1013.5 |
| 20260507010836 | 77 | 239 | 2.0 | 13.0 | 0.05 | 0.36 | 0.00 | 82 | 1013.5 |
| 20260507010514 | 77 | 62 | 4.0 | 13.0 | 0.04 | 0.35 | 0.00 | 81 | 1013.5 |
| 20260507010015 | 77 | 56 | 6.0 | 10.0 | 0.03 | 0.34 | 0.00 | 81 | 1013.5 |
| 20260507005816 | 77 | 16 | 3.0 | 5.0 | 0.03 | 0.34 | 0.00 | 82 | 1013.4 |
| 20260507005515 | 77 | 96 | 2.0 | 10.0 | 0.03 | 0.34 | 0.00 | 82 | 1013.4 |
| 20260507005015 | 77 | 30 | 3.0 | 8.0 | 0.04 | 0.34 | 0.00 | 83 | 1013.4 |
| 20260507004755 | 77 | 252 | 1.0 | 8.0 | 0.04 | 0.34 | 0.00 | 83 | 1013.4 |
| 20260507004514 | 77 | 359 | 5.0 | 9.0 | 0.04 | 0.34 | 0.00 | 83 | 1013.4 |
| 20260507004246 | 77 | 47 | 3.0 | 9.0 | 0.03 | 0.33 | 0.00 | 83 | 1013.5 |
| 20260507004015 | 77 | 191 | 1.0 | 8.0 | 0.02 | 0.31 | 0.00 | 83 | 1013.5 |
| 20260507003736 | 77 | 8 | 4.0 | 8.0 | 0.02 | 0.31 | 0.00 | 83 | 1013.5 |
| 20260507003515 | 77 | 57 | 3.0 | 6.0 | 0.02 | 0.31 | 0.00 | 83 | 1013.5 |
| 20260507003226 | 76 | 268 | 1.0 | 14.0 | 0.02 | 0.31 | 0.00 | 83 | 1013.5 |
| 20260507003014 | 76 | 155 | 8.0 | 14.0 | 0.02 | 0.31 | 0.00 | 83 | 1013.6 |
| 20260507002715 | 77 | 209 | 1.0 | 9.0 | 0.02 | 0.31 | 0.00 | 83 | 1013.5 |
| 20260507002514 | 77 | 60 | 4.0 | 10.0 | 0.02 | 0.31 | 0.00 | 83 | 1013.5 |
| 20260507002206 | 76 | 10 | 4.0 | 10.0 | 0.02 | 0.31 | 0.00 | 83 | 1013.5 |
| 20260507002014 | 77 | 242 | 4.0 | 11.0 | 0.02 | 0.31 | 0.00 | 83 | 1013.5 |
| 20260507001656 | 76 | 54 | 2.0 | 10.0 | 0.02 | 0.31 | 0.00 | 83 | 1013.4 |
| 20260507001515 | 76 | 74 | 4.0 | 8.0 | 0.01 | 0.30 | 0.00 | 83 | 1013.4 |
| 20260507001145 | 77 | 47 | 1.0 | 9.0 | 0.01 | 0.30 | 0.00 | 83 | 1013.5 |
| 20260507001014 | 76 | 301 | 1.0 | 9.0 | 0.01 | 0.30 | 0.00 | 83 | 1013.4 |
| 20260507000636 | 77 | 41 | 1.0 | 8.0 | 0.01 | 0.30 | 0.00 | 83 | 1013.4 |
| 20260507000514 | 77 | 320 | 3.0 | 8.0 | 0.01 | 0.30 | 0.00 | 83 | 1013.4 |
| 20260507000126 | 76 | 27 | 1.0 | 9.0 | 0.01 | 0.30 | 0.00 | 83 | 1013.3 |
| 20260507000014 | 76 | 51 | 1.0 | 9.0 | 0.01 | 0.30 | 0.00 | 84 | 1013.3 |
| 20260506235616 | 76 | 27 | 3.0 | 9.0 | 0.01 | 0.30 | 0.00 | 84 | 1013.3 |
| 20260506235514 | 76 | 27 | 2.0 | 9.0 | 0.01 | 0.30 | 0.00 | 84 | 1013.3 |
| 20260506235105 | 76 | 138 | 3.0 | 7.0 | 0.00 | 0.29 | 0.00 | 84 | 1013.3 |
| 20260506235014 | 76 | 4 | 1.0 | 7.0 | 0.00 | 0.29 | 0.00 | 84 | 1013.4 |
| 20260506234555 | 76 | 72 | 1.0 | 11.0 | 0.00 | 0.29 | 0.00 | 84 | 1013.4 |
| 20260506234514 | 76 | 31 | 2.0 | 11.0 | 0.00 | 0.29 | 0.00 | 84 | 1013.4 |
| 20260506234046 | 76 | 22 | 3.0 | 7.0 | 0.00 | 0.29 | 0.00 | 84 | 1013.3 |
| 20260506234015 | 76 | 49 | 2.0 | 7.0 | 0.00 | 0.29 | 0.00 | 84 | 1013.3 |
| 20260506233535 | 76 | 56 | 2.0 | 6.0 | 0.00 | 0.29 | 0.00 | 85 | 1013.3 |
| 20260506233514 | 76 | 73 | 2.0 | 6.0 | 0.00 | 0.29 | 0.00 | 85 | 1013.3 |
| 20260506233025 | 76 | 359 | 0.0 | 7.0 | 0.00 | 0.29 | 0.00 | 85 | 1013.3 |
| 20260506233014 | 76 | 19 | 0.0 | 7.0 | 0.00 | 0.29 | 0.00 | 85 | 1013.2 |
| 20260506232517 | 76 | 47 | 2.0 | 10.0 | 0.00 | 0.29 | 0.00 | 85 | 1013.3 |
| 20260506232514 | 76 | 49 | 2.0 | 10.0 | 0.00 | 0.29 | 0.00 | 85 | 1013.2 |
| 20260506232014 | 75 | 22 | 3.0 | 7.0 | 0.00 | 0.29 | 0.00 | 85 | 1013.2 |
| 20260506231514 | 75 | 29 | 0.0 | 7.0 | 0.00 | 0.29 | 0.00 | 85 | 1013.1 |
| 20260506231455 | 75 | 36 | 0.0 | 7.0 | 0.00 | 0.29 | 0.00 | 85 | 1013.2 |
| 20260506231014 | 75 | 1 | 2.0 | 8.0 | 0.00 | 0.29 | 0.00 | 85 | 1013.1 |
| 20260506230946 | 75 | 5 | 5.0 | 9.0 | 0.00 | 0.29 | 0.00 | 85 | 1013.1 |
| 20260506230514 | 75 | 91 | 5.0 | 10.0 | 0.00 | 0.29 | 0.00 | 85 | 1013.1 |
| 20260506230435 | 75 | 75 | 4.0 | 10.0 | 0.00 | 0.29 | 0.00 | 85 | 1013.1 |
| 20260506230014 | 75 | 14 | 4.0 | 12.0 | 0.00 | 0.29 | 0.00 | 85 | 1013.1 |
| 20260506225925 | 75 | 42 | 4.0 | 12.0 | 0.00 | 0.29 | 0.00 | 85 | 1013.0 |
| 20260506225513 | 75 | 47 | 2.0 | 6.0 | 0.00 | 0.29 | 0.00 | 85 | 1013.0 |
| 20260506225415 | 75 | 279 | 2.0 | 8.0 | 0.00 | 0.29 | 0.00 | 85 | 1013.0 |
| 20260506225014 | 75 | 24 | 3.0 | 10.0 | 0.00 | 0.29 | 0.00 | 85 | 1013.0 |
| 20260506224905 | 75 | 360 | 2.0 | 10.0 | 0.00 | 0.29 | 0.00 | 85 | 1013.0 |
| 20260506224514 | 75 | 78 | 4.0 | 13.0 | 0.00 | 0.29 | 0.00 | 85 | 1013.0 |
| 20260506224355 | 75 | 55 | 2.0 | 13.0 | 0.00 | 0.29 | 0.00 | 85 | 1012.9 |
| 20260506224013 | 75 | 78 | 4.0 | 10.0 | 0.00 | 0.29 | 0.00 | 85 | 1012.9 |
| 20260506223514 | 75 | 22 | 3.0 | 9.0 | 0.00 | 0.29 | 0.00 | 85 | 1013.0 |
| 20260506223335 | 75 | 27 | 2.0 | 10.0 | 0.00 | 0.29 | 0.00 | 85 | 1013.0 |
| 20260506223013 | 75 | 39 | 3.0 | 10.0 | 0.00 | 0.29 | 0.00 | 85 | 1012.9 |
| 20260506222825 | 75 | 72 | 1.0 | 11.0 | 0.00 | 0.29 | 0.00 | 85 | 1012.9 |
| 20260506222514 | 75 | 53 | 3.0 | 11.0 | 0.00 | 0.29 | 0.00 | 85 | 1012.9 |
| 20260506222315 | 75 | 66 | 4.0 | 6.0 | 0.00 | 0.29 | 0.00 | 85 | 1012.9 |
| 20260506222014 | 75 | 294 | 2.0 | 5.0 | 0.00 | 0.29 | 0.00 | 85 | 1012.9 |
| 20260506221804 | 75 | 335 | 1.0 | 6.0 | 0.00 | 0.29 | 0.00 | 85 | 1012.8 |
| 20260506221513 | 75 | 42 | 1.0 | 6.0 | 0.00 | 0.29 | 0.00 | 85 | 1012.8 |
| 20260506221255 | 75 | 36 | 2.0 | 8.0 | 0.00 | 0.29 | 0.00 | 85 | 1012.8 |
| 20260506221014 | 75 | 27 | 3.0 | 8.0 | 0.00 | 0.29 | 0.00 | 85 | 1012.7 |
| 20260506220745 | 75 | 99 | 3.0 | 7.0 | 0.00 | 0.29 | 0.00 | 85 | 1012.7 |
| 20260506220513 | 75 | 55 | 0.0 | 8.0 | 0.00 | 0.29 | 0.00 | 85 | 1012.8 |
| 20260506220013 | 75 | 35 | 1.0 | 10.0 | 0.00 | 0.29 | 0.00 | 85 | 1012.7 |
| 20260506215725 | 75 | 239 | 7.0 | 10.0 | 0.00 | 0.29 | 0.00 | 85 | 1012.6 |
| 20260506215515 | 75 | 269 | 3.0 | 7.0 | 0.00 | 0.29 | 0.00 | 85 | 1012.6 |
| 20260506215214 | 75 | 344 | 1.0 | 8.0 | 0.00 | 0.29 | 0.00 | 85 | 1012.5 |
| 20260506215013 | 75 | 340 | 3.0 | 8.0 | 0.00 | 0.29 | 0.00 | 85 | 1012.5 |
| 20260506214704 | 75 | 100 | 1.0 | 7.0 | 0.00 | 0.29 | 0.00 | 85 | 1012.5 |
| 20260506214513 | 75 | 77 | 1.0 | 6.0 | 0.00 | 0.29 | 0.00 | 85 | 1012.5 |
| 20260506214155 | 75 | 306 | 0.0 | 9.0 | 0.00 | 0.29 | 0.00 | 85 | 1012.4 |
| 20260506214014 | 75 | 34 | 5.0 | 9.0 | 0.00 | 0.29 | 0.00 | 85 | 1012.4 |
| 20260506213644 | 75 | 41 | 6.0 | 9.0 | 0.00 | 0.29 | 0.00 | 85 | 1012.4 |
| 20260506213513 | 75 | 39 | 3.0 | 8.0 | 0.00 | 0.29 | 0.00 | 85 | 1012.3 |
| 20260506213135 | 75 | 71 | 3.0 | 7.0 | 0.00 | 0.29 | 0.00 | 85 | 1012.4 |
| 20260506213013 | 75 | 217 | 1.0 | 6.0 | 0.00 | 0.29 | 0.00 | 85 | 1012.3 |
| 20260506212624 | 75 | 29 | 1.0 | 5.0 | 0.00 | 0.29 | 0.00 | 85 | 1012.3 |
| 20260506212513 | 75 | 30 | 1.0 | 5.0 | 0.00 | 0.29 | 0.00 | 85 | 1012.3 |
| 20260506212115 | 75 | 57 | 1.0 | 3.0 | 0.00 | 0.29 | 0.00 | 85 | 1012.2 |
| 20260506212013 | 75 | 27 | 0.0 | 2.0 | 0.00 | 0.29 | 0.00 | 85 | 1012.3 |
| 20260506211513 | 75 | 190 | 1.0 | 2.0 | 0.00 | 0.29 | 0.00 | 85 | 1012.2 |
| 20260506211054 | 75 | 286 | 0.0 | 4.0 | 0.00 | 0.29 | 0.00 | 85 | 1012.1 |
| 20260506211013 | 75 | 326 | 1.0 | 4.0 | 0.00 | 0.29 | 0.00 | 85 | 1012.1 |
| 20260506210545 | 75 | 245 | 1.0 | 3.0 | 0.00 | 0.29 | 0.00 | 85 | 1012.1 |
| 20260506210034 | 75 | 20 | 0.0 | 4.0 | 0.00 | 0.29 | 0.00 | 85 | 1012.1 |
| 20260506210012 | 75 | 43 | 0.0 | 4.0 | 0.00 | 0.29 | 0.00 | 85 | 1012.0 |
| 20260506205524 | 75 | 116 | 3.0 | 5.0 | 0.00 | 0.29 | 0.00 | 85 | 1011.9 |
| 20260506205513 | 75 | 96 | 2.0 | 5.0 | 0.00 | 0.29 | 0.00 | 85 | 1011.9 |
| 20260506205016 | 75 | 9 | 3.0 | 6.0 | 0.00 | 0.29 | 0.00 | 85 | 1011.9 |
| 20260506205013 | 75 | 357 | 2.0 | 6.0 | 0.00 | 0.29 | 0.00 | 85 | 1012.0 |
| 20260506204512 | 75 | 28 | 1.0 | 8.0 | 0.00 | 0.29 | 0.00 | 85 | 1012.0 |
| 20260506204504 | 75 | 36 | 1.0 | 8.0 | 0.00 | 0.29 | 0.00 | 85 | 1012.0 |
| 20260506204013 | 75 | 30 | 3.0 | 4.0 | 0.00 | 0.29 | 0.00 | 85 | 1012.0 |
| 20260506203954 | 75 | 72 | 2.0 | 4.0 | 0.00 | 0.29 | 0.00 | 85 | 1012.0 |
| 20260506203513 | 75 | 335 | 0.0 | 1.0 | 0.00 | 0.29 | 0.00 | 85 | 1012.0 |
| 20260506203444 | 75 | 352 | 0.0 | 1.0 | 0.00 | 0.29 | 0.00 | 85 | 1012.0 |
| 20260506203013 | 75 | 310 | 0.0 | 1.0 | 0.00 | 0.29 | 0.00 | 85 | 1011.9 |
| 20260506202935 | 75 | 13 | 1.0 | 1.0 | 0.00 | 0.29 | 0.00 | 85 | 1011.9 |
| 20260506202512 | 75 | 356 | 0.0 | 1.0 | 0.00 | 0.29 | 0.00 | 85 | 1012.0 |
| 20260506202424 | 75 | 302 | 0.0 | 1.0 | 0.00 | 0.29 | 0.00 | 85 | 1011.9 |
| 20260506202013 | 75 | 234 | 0.0 | 4.0 | 0.00 | 0.29 | 0.00 | 85 | 1011.9 |
| 20260506201914 | 75 | 360 | 0.0 | 4.0 | 0.00 | 0.29 | 0.00 | 85 | 1011.9 |
| 20260506201513 | 75 | 94 | 1.0 | 4.0 | 0.00 | 0.29 | 0.00 | 85 | 1011.9 |
| 20260506201403 | 75 | 21 | 2.0 | 4.0 | 0.00 | 0.29 | 0.00 | 85 | 1011.9 |
| 20260506201012 | 75 | 32 | 1.0 | 2.0 | 0.00 | 0.29 | 0.00 | 85 | 1011.9 |
| 20260506200854 | 75 | 65 | 0.0 | 2.0 | 0.00 | 0.29 | 0.00 | 85 | 1011.9 |
| 20260506200513 | 75 | 20 | 0.0 | 1.0 | 0.00 | 0.29 | 0.00 | 85 | 1011.8 |
| 20260506200344 | 75 | 20 | 0.0 | 1.0 | 0.00 | 0.29 | 0.00 | 85 | 1011.9 |
| 20260506200012 | 75 | 29 | 0.0 | 5.0 | 0.00 | 0.29 | 0.00 | 85 | 1011.9 |
| 20260506195834 | 75 | 335 | 0.0 | 5.0 | 0.00 | 0.29 | 0.00 | 85 | 1011.9 |
| 20260506195512 | 75 | 336 | 0.0 | 3.0 | 0.00 | 0.29 | 0.00 | 85 | 1011.9 |
| 20260506195324 | 75 | 280 | 1.0 | 4.0 | 0.00 | 0.29 | 0.00 | 85 | 1011.9 |
| 20260506195013 | 75 | 204 | 1.0 | 4.0 | 0.00 | 0.29 | 0.00 | 85 | 1011.8 |
| 20260506194814 | 75 | 55 | 0.0 | 5.0 | 0.00 | 0.29 | 0.00 | 85 | 1011.8 |
| 20260506194512 | 75 | 197 | 1.0 | 5.0 | 0.00 | 0.29 | 0.00 | 85 | 1011.8 |
| 20260506194303 | 75 | 232 | 0.0 | 4.0 | 0.00 | 0.29 | 0.00 | 85 | 1011.8 |
| 20260506194012 | 75 | 306 | 2.0 | 4.0 | 0.00 | 0.29 | 0.00 | 85 | 1011.8 |
| 20260506193754 | 75 | 295 | 0.0 | 3.0 | 0.00 | 0.29 | 0.00 | 85 | 1011.8 |
| 20260506193512 | 75 | 291 | 1.0 | 3.0 | 0.00 | 0.29 | 0.00 | 85 | 1011.8 |
| 20260506193243 | 75 | 311 | 0.0 | 1.0 | 0.00 | 0.29 | 0.00 | 85 | 1011.9 |
| 20260506193012 | 75 | 340 | 0.0 | 2.0 | 0.00 | 0.29 | 0.00 | 85 | 1011.9 |
| 20260506192734 | 75 | 49 | 0.0 | 4.0 | 0.00 | 0.29 | 0.00 | 85 | 1011.9 |
| 20260506192512 | 75 | 293 | 1.0 | 5.0 | 0.00 | 0.29 | 0.00 | 85 | 1012.0 |
| 20260506192224 | 75 | 213 | 1.0 | 5.0 | 0.00 | 0.29 | 0.00 | 85 | 1012.0 |
| 20260506192012 | 75 | 221 | 1.0 | 2.0 | 0.01 | 0.29 | 0.00 | 85 | 1012.0 |
| 20260506191512 | 75 | 210 | 0.0 | 4.0 | 0.01 | 0.29 | 0.00 | 85 | 1012.0 |
| 20260506191204 | 75 | 159 | 1.0 | 3.0 | 0.01 | 0.29 | 0.00 | 85 | 1012.0 |
| 20260506191012 | 75 | 187 | 1.0 | 2.0 | 0.01 | 0.29 | 0.00 | 85 | 1012.0 |
| 20260506190653 | 75 | 266 | 1.0 | 2.0 | 0.01 | 0.29 | 0.00 | 85 | 1012.0 |
| 20260506190512 | 75 | 242 | 1.0 | 2.0 | 0.01 | 0.29 | 0.00 | 85 | 1012.0 |
| 20260506190144 | 75 | 247 | 0.0 | 2.0 | 0.01 | 0.29 | 0.00 | 85 | 1012.0 |
| 20260506190012 | 75 | 262 | 1.0 | 2.0 | 0.01 | 0.29 | 0.00 | 85 | 1012.0 |
| 20260506185633 | 75 | 122 | 1.0 | 1.0 | 0.01 | 0.29 | 0.00 | 85 | 1011.9 |
| 20260506185512 | 75 | 48 | 0.0 | 3.0 | 0.01 | 0.29 | 0.00 | 85 | 1011.9 |
| 20260506185123 | 75 | 28 | 1.0 | 5.0 | 0.01 | 0.29 | 0.00 | 85 | 1012.0 |
| 20260506185012 | 75 | 72 | 1.0 | 5.0 | 0.01 | 0.29 | 0.00 | 85 | 1012.0 |
| 20260506184613 | 75 | 336 | 0.0 | 2.0 | 0.01 | 0.29 | 0.00 | 85 | 1012.0 |
| 20260506184511 | 75 | 20 | 0.0 | 2.0 | 0.01 | 0.29 | 0.00 | 85 | 1012.0 |
| 20260506184103 | 75 | 63 | 1.0 | 4.0 | 0.01 | 0.29 | 0.00 | 85 | 1012.1 |
| 20260506184012 | 75 | 25 | 2.0 | 4.0 | 0.01 | 0.29 | 0.00 | 85 | 1012.1 |
| 20260506183553 | 75 | 252 | 0.0 | 3.0 | 0.01 | 0.29 | 0.00 | 85 | 1012.1 |
| 20260506183512 | 75 | 235 | 0.0 | 5.0 | 0.01 | 0.29 | 0.00 | 84 | 1012.1 |
| 20260506183012 | 75 | 213 | 2.0 | 6.0 | 0.01 | 0.29 | 0.00 | 84 | 1012.1 |
| 20260506182533 | 75 | 220 | 1.0 | 5.0 | 0.01 | 0.29 | 0.00 | 84 | 1012.1 |
| 20260506182512 | 75 | 168 | 2.0 | 5.0 | 0.01 | 0.29 | 0.00 | 84 | 1012.1 |
| 20260506182023 | 75 | 252 | 1.0 | 2.0 | 0.00 | 0.28 | 0.00 | 84 | 1012.1 |
| 20260506182012 | 75 | 252 | 1.0 | 2.0 | 0.00 | 0.28 | 0.00 | 84 | 1012.2 |
| 20260506181514 | 75 | 287 | 0.0 | 4.0 | 0.00 | 0.28 | 0.00 | 84 | 1012.2 |
| 20260506181512 | 75 | 288 | 0.0 | 4.0 | 0.00 | 0.28 | 0.00 | 84 | 1012.2 |
| 20260506181011 | 75 | 169 | 0.0 | 1.0 | 0.00 | 0.28 | 0.00 | 84 | 1012.2 |
| 20260506181003 | 75 | 184 | 0.0 | 1.0 | 0.00 | 0.28 | 0.00 | 84 | 1012.2 |
| 20260506180512 | 75 | 224 | 1.0 | 3.0 | 0.00 | 0.28 | 0.00 | 84 | 1012.2 |
| 20260506180453 | 75 | 238 | 2.0 | 3.0 | 0.00 | 0.28 | 0.00 | 84 | 1012.2 |
| 20260506180011 | 75 | 342 | 1.0 | 3.0 | 0.00 | 0.28 | 0.00 | 84 | 1012.2 |
| 20260506175942 | 75 | 357 | 0.0 | 3.0 | 0.00 | 0.28 | 0.00 | 84 | 1012.2 |
| 20260506175511 | 75 | 240 | 1.0 | 7.0 | 0.00 | 0.28 | 0.00 | 84 | 1012.3 |
| 20260506175433 | 75 | 281 | 2.0 | 7.0 | 0.00 | 0.28 | 0.00 | 84 | 1012.3 |
| 20260506175012 | 75 | 258 | 0.0 | 0.0 | 0.00 | 0.28 | 0.00 | 84 | 1012.3 |
| 20260506174922 | 75 | 268 | 0.0 | 0.0 | 0.00 | 0.28 | 0.00 | 84 | 1012.3 |
| 20260506174511 | 75 | 253 | 0.0 | 3.0 | 0.00 | 0.28 | 0.00 | 84 | 1012.3 |
| 20260506174413 | 75 | 294 | 0.0 | 3.0 | 0.00 | 0.28 | 0.00 | 84 | 1012.3 |
| 20260506174012 | 75 | 229 | 0.0 | 1.0 | 0.00 | 0.28 | 0.00 | 84 | 1012.3 |
| 20260506173903 | 75 | 16 | 0.0 | 1.0 | 0.00 | 0.28 | 0.00 | 84 | 1012.3 |
| 20260506173512 | 75 | 57 | 0.0 | 2.0 | 0.00 | 0.28 | 0.00 | 84 | 1012.3 |
| 20260506173352 | 75 | 49 | 0.0 | 2.0 | 0.00 | 0.28 | 0.00 | 84 | 1012.3 |
| 20260506173011 | 75 | 199 | 1.0 | 2.0 | 0.00 | 0.28 | 0.00 | 84 | 1012.3 |
| 20260506172843 | 75 | 128 | 0.0 | 1.0 | 0.00 | 0.28 | 0.00 | 84 | 1012.3 |
| 20260506172511 | 75 | 77 | 0.0 | 2.0 | 0.00 | 0.28 | 0.00 | 84 | 1012.4 |
| 20260506172333 | 75 | 26 | 1.0 | 2.0 | 0.00 | 0.28 | 0.00 | 84 | 1012.4 |
| 20260506172011 | 75 | 232 | 0.0 | 1.0 | 0.00 | 0.28 | 0.00 | 84 | 1012.4 |
| 20260506171822 | 75 | 41 | 0.0 | 1.0 | 0.00 | 0.28 | 0.00 | 84 | 1012.4 |
| 20260506171511 | 75 | 20 | 0.0 | 1.0 | 0.00 | 0.28 | 0.00 | 84 | 1012.4 |
| 20260506171313 | 75 | 339 | 0.0 | 3.0 | 0.00 | 0.28 | 0.00 | 84 | 1012.4 |
| 20260506171011 | 75 | 254 | 0.0 | 3.0 | 0.00 | 0.28 | 0.00 | 84 | 1012.4 |
| 20260506170802 | 75 | 128 | 1.0 | 3.0 | 0.00 | 0.28 | 0.00 | 84 | 1012.5 |
| 20260506170511 | 75 | 99 | 1.0 | 4.0 | 0.00 | 0.28 | 0.00 | 84 | 1012.4 |
| 20260506170253 | 75 | 327 | 1.0 | 4.0 | 0.00 | 0.28 | 0.00 | 84 | 1012.4 |
| 20260506170011 | 75 | 261 | 0.0 | 7.0 | 0.00 | 0.28 | 0.00 | 84 | 1012.4 |
| 20260506165743 | 75 | 16 | 4.0 | 7.0 | 0.00 | 0.28 | 0.00 | 84 | 1012.4 |
| 20260506165512 | 75 | 49 | 0.0 | 3.0 | 0.00 | 0.28 | 0.00 | 84 | 1012.4 |
| 20260506165232 | 75 | 33 | 0.0 | 5.0 | 0.00 | 0.28 | 0.00 | 84 | 1012.4 |
| 20260506165011 | 75 | 123 | 0.0 | 5.0 | 0.00 | 0.28 | 0.00 | 84 | 1012.4 |
| 20260506164722 | 75 | 56 | 2.0 | 5.0 | 0.00 | 0.28 | 0.00 | 84 | 1012.4 |
| 20260506164511 | 75 | 15 | 2.0 | 6.0 | 0.00 | 0.28 | 0.00 | 84 | 1012.4 |
| 20260506164212 | 75 | 48 | 2.0 | 6.0 | 0.00 | 0.28 | 0.00 | 84 | 1012.4 |
| 20260506164010 | 75 | 45 | 2.0 | 5.0 | 0.00 | 0.28 | 0.00 | 84 | 1012.4 |
| 20260506163702 | 75 | 31 | 2.0 | 5.0 | 0.00 | 0.28 | 0.00 | 84 | 1012.5 |
| 20260506163511 | 75 | 28 | 1.0 | 4.0 | 0.00 | 0.28 | 0.00 | 84 | 1012.5 |
| 20260506163152 | 75 | 51 | 1.0 | 4.0 | 0.00 | 0.28 | 0.00 | 84 | 1012.6 |
| 20260506163011 | 75 | 109 | 1.0 | 4.0 | 0.00 | 0.28 | 0.00 | 84 | 1012.6 |
| 20260506162642 | 75 | 18 | 2.0 | 5.0 | 0.00 | 0.28 | 0.00 | 84 | 1012.6 |
| 20260506162510 | 75 | 1 | 1.0 | 5.0 | 0.00 | 0.28 | 0.00 | 84 | 1012.6 |
| 20260506162132 | 75 | 61 | 1.0 | 4.0 | 0.00 | 0.28 | 0.00 | 84 | 1012.6 |
| 20260506162011 | 75 | 13 | 1.0 | 4.0 | 0.00 | 0.28 | 0.00 | 84 | 1012.6 |
| 20260506161622 | 75 | 317 | 1.0 | 5.0 | 0.00 | 0.28 | 0.00 | 84 | 1012.7 |
| 20260506161511 | 75 | 17 | 1.0 | 5.0 | 0.00 | 0.28 | 0.00 | 83 | 1012.6 |
| 20260506161112 | 75 | 64 | 0.0 | 2.0 | 0.00 | 0.28 | 0.00 | 83 | 1012.7 |
| 20260506161011 | 75 | 50 | 0.0 | 2.0 | 0.00 | 0.28 | 0.00 | 83 | 1012.7 |
| 20260506160602 | 75 | 19 | 1.0 | 5.0 | 0.00 | 0.28 | 0.00 | 83 | 1012.8 |
| 20260506160511 | 75 | 47 | 1.0 | 5.0 | 0.00 | 0.28 | 0.00 | 83 | 1012.8 |
| 20260506160052 | 75 | 61 | 1.0 | 2.0 | 0.00 | 0.28 | 0.00 | 83 | 1012.8 |
| 20260506160010 | 75 | 319 | 0.0 | 2.0 | 0.00 | 0.28 | 0.00 | 83 | 1012.8 |
| 20260506155542 | 75 | 337 | 0.0 | 7.0 | 0.00 | 0.28 | 0.00 | 83 | 1012.8 |
| 20260506155510 | 75 | 341 | 1.0 | 7.0 | 0.00 | 0.28 | 0.00 | 83 | 1012.8 |
| 20260506155032 | 75 | 26 | 0.0 | 5.0 | 0.00 | 0.28 | 0.00 | 83 | 1012.8 |
| 20260506155011 | 75 | 31 | 0.0 | 4.0 | 0.00 | 0.28 | 0.00 | 83 | 1012.8 |
| 20260506154521 | 75 | 234 | 0.0 | 4.0 | 0.00 | 0.28 | 0.00 | 83 | 1012.8 |
| 20260506154510 | 75 | 234 | 0.0 | 4.0 | 0.00 | 0.28 | 0.00 | 83 | 1012.7 |
| 20260506154013 | 75 | 263 | 0.0 | 4.0 | 0.00 | 0.28 | 0.00 | 83 | 1012.8 |
| 20260506154010 | 75 | 303 | 0.0 | 4.0 | 0.00 | 0.28 | 0.00 | 83 | 1012.8 |
| 20260506153511 | 75 | 113 | 2.0 | 7.0 | 0.00 | 0.28 | 0.00 | 83 | 1012.8 |
| 20260506153502 | 75 | 122 | 3.0 | 7.0 | 0.00 | 0.28 | 0.00 | 83 | 1012.9 |
| 20260506153010 | 75 | 230 | 1.0 | 5.0 | 0.00 | 0.28 | 0.00 | 83 | 1012.9 |
| 20260506152952 | 75 | 303 | 2.0 | 5.0 | 0.00 | 0.28 | 0.00 | 83 | 1013.0 |
| 20260506152510 | 75 | 357 | 1.0 | 2.0 | 0.00 | 0.28 | 0.00 | 83 | 1013.1 |
| 20260506152442 | 75 | 27 | 0.0 | 2.0 | 0.00 | 0.28 | 0.00 | 83 | 1013.1 |
| 20260506152012 | 75 | 21 | 0.0 | 4.0 | 0.00 | 0.28 | 0.00 | 83 | 1013.1 |
| 20260506151931 | 75 | 360 | 0.0 | 4.0 | 0.00 | 0.28 | 0.00 | 83 | 1013.1 |
| 20260506151511 | 75 | 25 | 2.0 | 11.0 | 0.00 | 0.28 | 0.00 | 83 | 1013.2 |
| 20260506151422 | 75 | 56 | 1.0 | 11.0 | 0.00 | 0.28 | 0.00 | 83 | 1013.1 |
| 20260506151010 | 75 | 57 | 3.0 | 6.0 | 0.00 | 0.28 | 0.00 | 83 | 1013.2 |
| 20260506150911 | 75 | 43 | 0.0 | 2.0 | 0.00 | 0.28 | 0.00 | 83 | 1013.2 |
| 20260506150510 | 75 | 55 | 0.0 | 2.0 | 0.00 | 0.28 | 0.00 | 83 | 1013.1 |
| 20260506150402 | 75 | 60 | 0.0 | 2.0 | 0.00 | 0.28 | 0.00 | 83 | 1013.2 |
| 20260506150011 | 75 | 76 | 1.0 | 3.0 | 0.00 | 0.28 | 0.00 | 83 | 1013.2 |
| 20260506145851 | 75 | 30 | 1.0 | 5.0 | 0.00 | 0.28 | 0.00 | 83 | 1013.1 |
| 20260506145510 | 75 | 124 | 3.0 | 5.0 | 0.00 | 0.28 | 0.00 | 83 | 1013.2 |
| 20260506145342 | 75 | 115 | 2.0 | 4.0 | 0.00 | 0.28 | 0.00 | 83 | 1013.2 |
| 20260506145009 | 75 | 53 | 1.0 | 3.0 | 0.00 | 0.28 | 0.00 | 82 | 1013.1 |
| 20260506144831 | 75 | 43 | 1.0 | 3.0 | 0.00 | 0.28 | 0.00 | 82 | 1013.2 |
| 20260506144510 | 75 | 235 | 0.0 | 3.0 | 0.00 | 0.28 | 0.00 | 82 | 1013.1 |
| 20260506144321 | 75 | 225 | 1.0 | 2.0 | 0.00 | 0.28 | 0.00 | 82 | 1013.1 |
| 20260506144010 | 75 | 203 | 0.0 | 3.0 | 0.00 | 0.28 | 0.00 | 82 | 1013.1 |
| 20260506143811 | 75 | 345 | 0.0 | 3.0 | 0.00 | 0.28 | 0.00 | 82 | 1013.0 |
| 20260506143510 | 75 | 286 | 1.0 | 7.0 | 0.00 | 0.28 | 0.00 | 82 | 1013.0 |
| 20260506143301 | 75 | 299 | 3.0 | 7.0 | 0.00 | 0.28 | 0.00 | 82 | 1012.9 |
| 20260506143010 | 75 | 321 | 0.0 | 2.0 | 0.00 | 0.28 | 0.00 | 82 | 1012.9 |
| 20260506142752 | 75 | 254 | 0.0 | 5.0 | 0.00 | 0.28 | 0.00 | 82 | 1013.0 |
| 20260506142509 | 75 | 354 | 2.0 | 5.0 | 0.00 | 0.28 | 0.00 | 82 | 1013.0 |
| 20260506142241 | 75 | 68 | 2.0 | 3.0 | 0.00 | 0.28 | 0.00 | 82 | 1013.0 |
| 20260506142010 | 75 | 315 | 0.0 | 9.0 | 0.00 | 0.28 | 0.00 | 82 | 1013.0 |
| 20260506141731 | 75 | 32 | 2.0 | 9.0 | 0.00 | 0.28 | 0.00 | 82 | 1013.0 |
| 20260506141510 | 75 | 68 | 3.0 | 5.0 | 0.00 | 0.28 | 0.00 | 82 | 1013.0 |
| 20260506141222 | 75 | 78 | 2.0 | 5.0 | 0.00 | 0.28 | 0.00 | 82 | 1013.0 |
| 20260506141009 | 75 | 50 | 2.0 | 5.0 | 0.00 | 0.28 | 0.00 | 82 | 1013.1 |
| 20260506140711 | 75 | 36 | 2.0 | 8.0 | 0.00 | 0.28 | 0.00 | 82 | 1013.0 |
| 20260506140510 | 75 | 21 | 0.0 | 8.0 | 0.00 | 0.28 | 0.00 | 82 | 1013.0 |
| 20260506140201 | 75 | 92 | 0.0 | 4.0 | 0.00 | 0.28 | 0.00 | 82 | 1013.0 |
| 20260506140010 | 75 | 18 | 1.0 | 3.0 | 0.00 | 0.28 | 0.00 | 82 | 1012.9 |
| 20260506135651 | 75 | 282 | 1.0 | 9.0 | 0.00 | 0.28 | 0.00 | 82 | 1012.9 |
| 20260506135509 | 75 | 25 | 3.0 | 9.0 | 0.00 | 0.28 | 0.00 | 82 | 1012.9 |
| 20260506135141 | 75 | 9 | 3.0 | 8.0 | 0.00 | 0.28 | 0.00 | 82 | 1013.0 |
| 20260506135010 | 75 | 42 | 1.0 | 8.0 | 0.00 | 0.28 | 0.00 | 82 | 1012.9 |
| 20260506134631 | 75 | 311 | 2.0 | 6.0 | 0.00 | 0.28 | 0.00 | 82 | 1012.9 |
| 20260506134510 | 75 | 24 | 2.0 | 5.0 | 0.00 | 0.28 | 0.00 | 82 | 1012.8 |
| 20260506134121 | 75 | 360 | 1.0 | 13.0 | 0.00 | 0.28 | 0.00 | 82 | 1012.8 |
| 20260506134009 | 75 | 22 | 2.0 | 15.0 | 0.00 | 0.28 | 0.00 | 82 | 1012.8 |
| 20260506133611 | 75 | 61 | 7.0 | 13.0 | 0.00 | 0.28 | 0.00 | 82 | 1012.8 |
| 20260506133509 | 75 | 71 | 5.0 | 8.0 | 0.00 | 0.28 | 0.00 | 83 | 1012.7 |
| 20260506133010 | 75 | 329 | 1.0 | 9.0 | 0.01 | 0.28 | 0.00 | 83 | 1012.7 |
| 20260506132550 | 75 | 43 | 3.0 | 8.0 | 0.01 | 0.28 | 0.00 | 83 | 1012.7 |
| 20260506132509 | 75 | 23 | 3.0 | 7.0 | 0.01 | 0.28 | 0.00 | 83 | 1012.7 |
| 20260506132041 | 75 | 338 | 1.0 | 11.0 | 0.01 | 0.28 | 0.00 | 83 | 1012.7 |
| 20260506132009 | 75 | 271 | 2.0 | 11.0 | 0.01 | 0.28 | 0.00 | 83 | 1012.6 |
| 20260506131531 | 75 | 269 | 1.0 | 3.0 | 0.01 | 0.28 | 0.00 | 83 | 1012.7 |
| 20260506131509 | 75 | 253 | 1.0 | 3.0 | 0.01 | 0.28 | 0.00 | 83 | 1012.7 |
| 20260506131020 | 75 | 56 | 3.0 | 9.0 | 0.01 | 0.28 | 0.00 | 83 | 1012.7 |
| 20260506131010 | 75 | 52 | 3.0 | 9.0 | 0.01 | 0.28 | 0.00 | 83 | 1012.7 |
| 20260506130509 | 75 | 58 | 2.0 | 7.0 | 0.01 | 0.28 | 0.00 | 83 | 1012.7 |
| 20260506130009 | 75 | 87 | 5.0 | 10.0 | 0.01 | 0.28 | 0.00 | 83 | 1012.6 |
| 20260506130000 | 75 | 101 | 5.0 | 10.0 | 0.01 | 0.28 | 0.00 | 83 | 1012.6 |
| 20260506125510 | 75 | 37 | 4.0 | 11.0 | 0.01 | 0.28 | 0.00 | 83 | 1012.6 |
| 20260506125451 | 75 | 58 | 4.0 | 11.0 | 0.01 | 0.28 | 0.00 | 83 | 1012.6 |
| 20260506125009 | 75 | 293 | 2.0 | 5.0 | 0.01 | 0.28 | 0.00 | 83 | 1012.6 |
| 20260506124940 | 75 | 302 | 3.0 | 5.0 | 0.01 | 0.28 | 0.00 | 83 | 1012.6 |
| 20260506124509 | 75 | 360 | 2.0 | 9.0 | 0.01 | 0.28 | 0.00 | 83 | 1012.6 |
| 20260506124430 | 75 | 350 | 1.0 | 9.0 | 0.01 | 0.28 | 0.00 | 83 | 1012.6 |
| 20260506124008 | 75 | 83 | 2.0 | 7.0 | 0.01 | 0.28 | 0.00 | 83 | 1012.5 |
| 20260506123920 | 75 | 29 | 1.0 | 7.0 | 0.01 | 0.28 | 0.00 | 83 | 1012.5 |
| 20260506123509 | 75 | 75 | 5.0 | 13.0 | 0.01 | 0.28 | 0.00 | 83 | 1012.5 |
| 20260506123410 | 75 | 70 | 8.0 | 13.0 | 0.01 | 0.28 | 0.00 | 83 | 1012.5 |
| 20260506123009 | 75 | 57 | 3.0 | 8.0 | 0.00 | 0.27 | 0.00 | 83 | 1012.5 |
| 20260506122509 | 75 | 25 | 1.0 | 7.0 | 0.00 | 0.27 | 0.00 | 83 | 1012.3 |
| 20260506122350 | 75 | 54 | 3.0 | 7.0 | 0.00 | 0.27 | 0.00 | 83 | 1012.4 |
| 20260506122009 | 75 | 132 | 0.0 | 7.0 | 0.00 | 0.27 | 0.00 | 83 | 1012.3 |
| 20260506121840 | 75 | 28 | 1.0 | 7.0 | 0.00 | 0.27 | 0.00 | 83 | 1012.3 |
| 20260506121509 | 75 | 3 | 1.0 | 9.0 | 0.00 | 0.27 | 0.00 | 83 | 1012.3 |
| 20260506121330 | 75 | 46 | 3.0 | 9.0 | 0.00 | 0.27 | 0.00 | 83 | 1012.4 |
| 20260506121009 | 75 | 40 | 5.0 | 15.0 | 0.00 | 0.27 | 0.00 | 83 | 1012.3 |
| 20260506120820 | 75 | 350 | 4.0 | 15.0 | 0.00 | 0.27 | 0.00 | 83 | 1012.3 |
| 20260506120509 | 75 | 53 | 3.0 | 10.0 | 0.00 | 0.27 | 0.00 | 83 | 1012.3 |
| 20260506120309 | 75 | 71 | 6.0 | 9.0 | 0.00 | 0.27 | 0.00 | 83 | 1012.4 |
| 20260506120008 | 75 | 32 | 4.0 | 7.0 | 0.00 | 0.27 | 0.00 | 83 | 1012.3 |
| 20260506115800 | 75 | 75 | 1.0 | 8.0 | 0.00 | 0.27 | 0.00 | 83 | 1012.3 |
| 20260506115509 | 75 | 45 | 3.0 | 10.0 | 0.00 | 0.27 | 0.00 | 83 | 1012.2 |
| 20260506115250 | 75 | 88 | 5.0 | 10.0 | 0.00 | 0.27 | 0.00 | 83 | 1012.2 |
| 20260506115009 | 75 | 63 | 2.0 | 8.0 | 0.00 | 0.27 | 0.00 | 83 | 1012.2 |
| 20260506114740 | 75 | 168 | 1.0 | 3.0 | 0.00 | 0.27 | 0.00 | 83 | 1012.1 |
| 20260506114508 | 75 | 63 | 0.0 | 5.0 | 0.00 | 0.27 | 0.00 | 83 | 1012.1 |
| 20260506114230 | 75 | 53 | 2.0 | 6.0 | 0.00 | 0.27 | 0.00 | 84 | 1012.2 |
| 20260506114009 | 75 | 71 | 2.0 | 7.0 | 0.00 | 0.27 | 0.00 | 83 | 1012.1 |
| 20260506113720 | 75 | 215 | 2.0 | 7.0 | 0.00 | 0.27 | 0.00 | 83 | 1012.1 |
| 20260506113508 | 75 | 263 | 3.0 | 6.0 | 0.00 | 0.27 | 0.00 | 83 | 1012.1 |
| 20260506113210 | 75 | 269 | 1.0 | 9.0 | 0.00 | 0.27 | 0.00 | 83 | 1012.1 |
| 20260506113008 | 75 | 272 | 4.0 | 9.0 | 0.00 | 0.27 | 0.00 | 83 | 1012.1 |
| 20260506112700 | 75 | 233 | 1.0 | 4.0 | 0.00 | 0.27 | 0.00 | 83 | 1012.1 |
| 20260506112509 | 75 | 284 | 1.0 | 4.0 | 0.00 | 0.27 | 0.00 | 83 | 1012.1 |
| 20260506112149 | 75 | 14 | 1.0 | 4.0 | 0.00 | 0.27 | 0.00 | 83 | 1012.0 |
| 20260506112008 | 75 | 331 | 2.0 | 4.0 | 0.00 | 0.27 | 0.00 | 83 | 1012.0 |
| 20260506111639 | 75 | 344 | 0.0 | 4.0 | 0.00 | 0.27 | 0.00 | 83 | 1012.1 |
| 20260506111508 | 75 | 293 | 1.0 | 4.0 | 0.00 | 0.27 | 0.00 | 83 | 1012.0 |
| 20260506111130 | 75 | 333 | 0.0 | 3.0 | 0.00 | 0.27 | 0.00 | 83 | 1012.0 |
| 20260506111009 | 75 | 284 | 2.0 | 5.0 | 0.00 | 0.27 | 0.00 | 83 | 1012.0 |
| 20260506110619 | 75 | 2 | 1.0 | 9.0 | 0.00 | 0.27 | 0.00 | 83 | 1011.9 |
| 20260506110507 | 75 | 290 | 5.0 | 9.0 | 0.00 | 0.27 | 0.00 | 83 | 1011.9 |
| 20260506110110 | 75 | 258 | 0.0 | 12.0 | 0.00 | 0.27 | 0.00 | 83 | 1011.9 |
| 20260506110008 | 75 | 4 | 1.0 | 12.0 | 0.00 | 0.27 | 0.00 | 83 | 1011.9 |
| 20260506105600 | 75 | 48 | 3.0 | 11.0 | 0.00 | 0.27 | 0.00 | 83 | 1012.0 |
| 20260506105509 | 75 | 190 | 4.0 | 11.0 | 0.00 | 0.27 | 0.00 | 83 | 1011.9 |
| 20260506105049 | 75 | 282 | 4.0 | 10.0 | 0.00 | 0.27 | 0.00 | 83 | 1011.9 |
| 20260506105008 | 75 | 277 | 4.0 | 10.0 | 0.00 | 0.27 | 0.00 | 82 | 1011.8 |
| 20260506104539 | 75 | 277 | 2.0 | 10.0 | 0.00 | 0.27 | 0.00 | 82 | 1011.8 |
| 20260506104508 | 75 | 268 | 2.0 | 10.0 | 0.00 | 0.27 | 0.00 | 82 | 1011.9 |
| 20260506104030 | 75 | 288 | 2.0 | 8.0 | 0.00 | 0.27 | 0.00 | 82 | 1011.8 |
| 20260506104008 | 75 | 358 | 1.0 | 8.0 | 0.00 | 0.27 | 0.00 | 82 | 1011.8 |
| 20260506103520 | 75 | 283 | 1.0 | 6.0 | 0.00 | 0.27 | 0.00 | 82 | 1011.8 |
| 20260506103507 | 75 | 239 | 0.0 | 6.0 | 0.00 | 0.27 | 0.00 | 82 | 1011.8 |
| 20260506103010 | 75 | 276 | 3.0 | 9.0 | 0.01 | 0.27 | 0.00 | 82 | 1011.8 |
| 20260506103008 | 75 | 283 | 3.0 | 9.0 | 0.01 | 0.27 | 0.00 | 82 | 1011.8 |
| 20260506102508 | 75 | 329 | 2.0 | 7.0 | 0.01 | 0.27 | 0.00 | 82 | 1011.7 |
| 20260506102500 | 75 | 345 | 2.0 | 7.0 | 0.01 | 0.27 | 0.00 | 82 | 1011.7 |
| 20260506102008 | 75 | 314 | 0.0 | 6.0 | 0.01 | 0.27 | 0.00 | 82 | 1011.6 |
| 20260506101949 | 75 | 15 | 0.0 | 8.0 | 0.01 | 0.27 | 0.00 | 82 | 1011.6 |
| 20260506101508 | 75 | 49 | 6.0 | 11.0 | 0.01 | 0.27 | 0.00 | 82 | 1011.7 |
| 20260506101439 | 75 | 51 | 3.0 | 11.0 | 0.01 | 0.27 | 0.00 | 82 | 1011.7 |
| 20260506101008 | 75 | 207 | 1.0 | 8.0 | 0.02 | 0.27 | 0.00 | 82 | 1011.6 |
| 20260506100929 | 75 | 62 | 0.0 | 11.0 | 0.02 | 0.27 | 0.00 | 81 | 1011.6 |
| 20260506100507 | 76 | 216 | 7.0 | 11.0 | 0.02 | 0.27 | 0.00 | 81 | 1011.6 |
| 20260506100419 | 76 | 219 | 3.0 | 9.0 | 0.02 | 0.27 | 0.00 | 81 | 1011.6 |
| 20260506100008 | 76 | 341 | 3.0 | 6.0 | 0.02 | 0.27 | 0.00 | 81 | 1011.5 |
| 20260506095909 | 76 | 12 | 1.0 | 4.0 | 0.02 | 0.27 | 0.00 | 81 | 1011.5 |
| 20260506095508 | 76 | 39 | 1.0 | 5.0 | 0.02 | 0.27 | 0.00 | 81 | 1011.4 |
| 20260506095359 | 76 | 69 | 0.0 | 5.0 | 0.02 | 0.27 | 0.00 | 81 | 1011.5 |
| 20260506095007 | 76 | 347 | 2.0 | 8.0 | 0.02 | 0.27 | 0.00 | 81 | 1011.5 |
| 20260506094849 | 76 | 263 | 4.0 | 8.0 | 0.02 | 0.27 | 0.00 | 81 | 1011.5 |
| 20260506094507 | 76 | 2 | 1.0 | 8.0 | 0.02 | 0.27 | 0.00 | 81 | 1011.5 |
| 20260506094339 | 76 | 348 | 2.0 | 8.0 | 0.02 | 0.27 | 0.00 | 81 | 1011.5 |
| 20260506094008 | 76 | 272 | 4.0 | 8.0 | 0.02 | 0.27 | 0.00 | 81 | 1011.4 |
| 20260506093829 | 76 | 11 | 1.0 | 7.0 | 0.02 | 0.27 | 0.00 | 81 | 1011.4 |
| 20260506093507 | 76 | 7 | 2.0 | 7.0 | 0.03 | 0.27 | 0.00 | 81 | 1011.4 |
| 20260506093318 | 76 | 129 | 1.0 | 6.0 | 0.04 | 0.27 | 0.00 | 81 | 1011.4 |
| 20260506093007 | 76 | 19 | 0.0 | 4.0 | 0.03 | 0.25 | 0.00 | 82 | 1011.4 |
| 20260506092508 | 76 | 346 | 1.0 | 8.0 | 0.05 | 0.25 | 0.00 | 81 | 1011.4 |
| 20260506092259 | 76 | 343 | 5.0 | 9.0 | 0.05 | 0.25 | 0.00 | 81 | 1011.5 |
| 20260506092008 | 76 | 271 | 1.0 | 9.0 | 0.05 | 0.25 | 0.00 | 81 | 1011.5 |
| 20260506091748 | 76 | 222 | 3.0 | 8.0 | 0.05 | 0.25 | 0.00 | 81 | 1011.5 |
| 20260506091507 | 76 | 293 | 2.0 | 8.0 | 0.05 | 0.25 | 0.00 | 82 | 1011.5 |
| 20260506091238 | 76 | 326 | 1.0 | 14.0 | 0.05 | 0.25 | 0.00 | 82 | 1011.6 |
| 20260506091007 | 75 | 10 | 1.0 | 14.0 | 0.07 | 0.24 | 0.00 | 82 | 1011.6 |
| 20260506090729 | 75 | 19 | 6.0 | 11.0 | 0.07 | 0.24 | 0.00 | 82 | 1011.6 |
| 20260506090508 | 75 | 319 | 1.0 | 8.0 | 0.08 | 0.24 | 0.00 | 82 | 1011.7 |
| 20260506090219 | 75 | 178 | 1.0 | 15.0 | 0.08 | 0.24 | 0.00 | 82 | 1011.7 |
| 20260506090007 | 75 | 264 | 6.0 | 15.0 | 0.08 | 0.24 | 0.00 | 81 | 1011.6 |
| 20260506085708 | 75 | 39 | 4.0 | 15.0 | 0.09 | 0.24 | 0.00 | 81 | 1011.7 |
| 20260506085507 | 75 | 65 | 7.0 | 15.0 | 0.09 | 0.24 | 0.00 | 81 | 1011.8 |
| 20260506085159 | 76 | 238 | 3.0 | 7.0 | 0.10 | 0.24 | 0.00 | 81 | 1011.7 |
| 20260506085007 | 76 | 263 | 4.0 | 10.0 | 0.10 | 0.24 | 0.00 | 81 | 1011.7 |
| 20260506084007 | 76 | 53 | 2.0 | 8.0 | 0.11 | 0.24 | 0.00 | 81 | 1011.7 |
| 20260506083628 | 76 | 124 | 2.0 | 19.0 | 0.10 | 0.23 | 0.00 | 81 | 1011.6 |
| 20260506083507 | 76 | 94 | 7.0 | 19.0 | 0.10 | 0.23 | 0.00 | 80 | 1011.6 |
| 20260506083119 | 76 | 337 | 5.0 | 11.0 | 0.09 | 0.22 | 0.00 | 81 | 1011.6 |
| 20260506082609 | 76 | 201 | 1.0 | 15.0 | 0.08 | 0.21 | 0.00 | 81 | 1011.5 |
| 20260506082507 | 76 | 98 | 2.0 | 15.0 | 0.07 | 0.20 | 0.00 | 81 | 1011.6 |
| 20260506082058 | 76 | 246 | 4.0 | 8.0 | 0.08 | 0.20 | 0.00 | 81 | 1011.6 |
| 20260506082007 | 76 | 360 | 3.0 | 7.0 | 0.08 | 0.20 | 0.00 | 81 | 1011.6 |
| 20260506081548 | 75 | 215 | 2.0 | 14.0 | 0.08 | 0.20 | 0.00 | 81 | 1011.6 |
| 20260506081507 | 75 | 20 | 2.0 | 14.0 | 0.08 | 0.20 | 0.00 | 81 | 1011.6 |
| 20260506081039 | 75 | 221 | 1.0 | 9.0 | 0.08 | 0.20 | 0.00 | 81 | 1011.8 |
| 20260506081006 | 75 | 274 | 2.0 | 9.0 | 0.05 | 0.17 | 0.00 | 81 | 1011.8 |
| 20260506080528 | 76 | 245 | 4.0 | 10.0 | 0.04 | 0.16 | 0.00 | 81 | 1011.8 |
| 20260506080506 | 76 | 241 | 3.0 | 10.0 | 0.04 | 0.16 | 0.00 | 81 | 1011.8 |
| 20260506073506 | 76 | 260 | 5.0 | 9.0 | 0.03 | 0.12 | 0.00 | 81 | 1012.0 |
| 20260506073428 | 76 | 265 | 5.0 | 8.0 | 0.03 | 0.12 | 0.00 | 81 | 1012.1 |
| 20260506073006 | 76 | 360 | 1.0 | 6.0 | 0.03 | 0.12 | 0.00 | 81 | 1012.2 |
| 20260506072918 | 76 | 292 | 0.0 | 6.0 | 0.03 | 0.12 | 0.00 | 81 | 1012.2 |
| 20260506072507 | 75 | 311 | 3.0 | 9.0 | 0.03 | 0.12 | 0.00 | 81 | 1012.2 |
| 20260506072407 | 75 | 59 | 3.0 | 9.0 | 0.03 | 0.12 | 0.00 | 81 | 1012.2 |
| 20260506072006 | 75 | 282 | 6.0 | 8.0 | 0.02 | 0.11 | 0.00 | 80 | 1012.3 |
| 20260506071858 | 75 | 241 | 4.0 | 7.0 | 0.02 | 0.11 | 0.00 | 81 | 1012.2 |
| 20260506071506 | 75 | 39 | 1.0 | 10.0 | 0.02 | 0.11 | 0.00 | 80 | 1012.3 |
| 20260506071348 | 75 | 313 | 4.0 | 10.0 | 0.02 | 0.11 | 0.00 | 80 | 1012.4 |
| 20260506071007 | 76 | 60 | 4.0 | 8.0 | 0.02 | 0.11 | 0.00 | 80 | 1012.3 |
| 20260506070838 | 76 | 235 | 2.0 | 5.0 | 0.02 | 0.11 | 0.00 | 81 | 1012.3 |
| 20260506070506 | 76 | 246 | 2.0 | 7.0 | 0.02 | 0.11 | 0.00 | 80 | 1012.2 |
| 20260506070327 | 76 | 242 | 3.0 | 7.0 | 0.02 | 0.11 | 0.00 | 80 | 1012.2 |
| 20260506062506 | 75 | 312 | 3.0 | 8.0 | 0.03 | 0.09 | 0.00 | 81 | 1012.6 |
| 20260506062208 | 75 | 292 | 2.0 | 9.0 | 0.03 | 0.09 | 0.00 | 81 | 1012.6 |
| 20260506062006 | 75 | 255 | 3.0 | 9.0 | 0.03 | 0.09 | 0.00 | 81 | 1012.6 |
| 20260506061657 | 75 | 57 | 4.0 | 15.0 | 0.04 | 0.09 | 0.00 | 80 | 1012.7 |
| 20260506061506 | 75 | 27 | 8.0 | 16.0 | 0.04 | 0.09 | 0.00 | 80 | 1012.7 |
| 20260506061147 | 75 | 38 | 7.0 | 17.0 | 0.04 | 0.09 | 0.00 | 80 | 1012.8 |
| 20260506061006 | 75 | 61 | 11.0 | 17.0 | 0.04 | 0.09 | 0.00 | 79 | 1012.7 |
| 20260506060637 | 76 | 19 | 3.0 | 17.0 | 0.04 | 0.09 | 0.00 | 80 | 1012.8 |
| 20260506060505 | 76 | 288 | 1.0 | 17.0 | 0.04 | 0.09 | 0.00 | 80 | 1012.8 |
| 20260506060127 | 76 | 67 | 3.0 | 13.0 | 0.04 | 0.10 | 0.00 | 79 | 1012.9 |
| 20260506051006 | 76 | 8 | 3.0 | 15.0 | 0.04 | 0.05 | 0.00 | 79 | 1013.3 |
| 20260506050947 | 76 | 349 | 3.0 | 15.0 | 0.04 | 0.05 | 0.00 | 79 | 1013.3 |
| 20260506050506 | 76 | 23 | 3.0 | 16.0 | 0.04 | 0.05 | 0.00 | 80 | 1013.4 |
| 20260506050437 | 76 | 299 | 3.0 | 16.0 | 0.04 | 0.05 | 0.00 | 79 | 1013.3 |
| 20260506045006 | 75 | 40 | 4.0 | 13.0 | 0.03 | 0.04 | 0.00 | 80 | 1013.5 |
| 20260506044906 | 75 | 30 | 1.0 | 13.0 | 0.03 | 0.04 | 0.00 | 81 | 1013.5 |
| 20260506044505 | 75 | 74 | 6.0 | 15.0 | 0.02 | 0.03 | 0.00 | 80 | 1013.6 |
| 20260506044356 | 75 | 83 | 5.0 | 17.0 | 0.02 | 0.03 | 0.00 | 80 | 1013.7 |
| 20260506044005 | 75 | 188 | 10.0 | 17.0 | 0.02 | 0.03 | 0.00 | 80 | 1013.6 |
| 20260506043847 | 75 | 208 | 7.0 | 15.0 | 0.02 | 0.03 | 0.00 | 81 | 1013.6 |